| time (UTC) | temp F | wind direction | speed MPH | gust MPH | rain 1hr in | rain 24hr in | rain mn in | humidity % | barometer mb |
| 20260905135030 | 79 | 286 | 2.0 | 5.0 | 0.00 | 0.00 | 0.00 | 90 | 1015.5 |
| 20260905134532 | 79 | 286 | 2.0 | 7.0 | 0.00 | 0.00 | 0.00 | 90 | 1015.6 |
| 20260905134033 | 79 | 286 | 2.0 | 7.0 | 0.00 | 0.00 | 0.00 | 91 | 1015.5 |
| 20260905133528 | 78 | 287 | 2.0 | 5.0 | 0.00 | 0.00 | 0.00 | 91 | 1015.5 |
| 20260905133049 | 78 | 289 | 3.0 | 5.0 | 0.00 | 0.00 | 0.00 | 91 | 1015.7 |
| 20260905132532 | 78 | 291 | 3.0 | 7.0 | 0.00 | 0.00 | 0.00 | 92 | 1015.7 |
| 20260905132044 | 78 | 297 | 4.0 | 7.0 | 0.00 | 0.00 | 0.00 | 92 | 1015.7 |
| 20260905131025 | 78 | 279 | 2.0 | 5.0 | 0.00 | 0.00 | 0.00 | 92 | 1015.7 |
| 20260905130526 | 78 | 280 | 3.0 | 6.0 | 0.00 | 0.00 | 0.00 | 93 | 1015.6 |
| 20260905130030 | 78 | 274 | 3.0 | 6.0 | 0.00 | 0.00 | 0.00 | 93 | 1015.6 |
| 20260905125516 | 77 | 266 | 3.0 | 6.0 | 0.00 | 0.00 | 0.00 | 93 | 1015.5 |
| 20260905125013 | 77 | 280 | 3.0 | 5.0 | 0.00 | 0.00 | 0.00 | 94 | 1015.3 |
| 20260905124514 | 77 | 289 | 2.0 | 4.0 | 0.00 | 0.00 | 0.00 | 94 | 1015.4 |
| 20260905124014 | 77 | 289 | 2.0 | 4.0 | 0.00 | 0.00 | 0.00 | 95 | 1015.4 |
| 20260905123512 | 77 | 290 | 2.0 | 4.0 | 0.00 | 0.00 | 0.00 | 95 | 1015.3 |
| 20260905123012 | 77 | 290 | 3.0 | 5.0 | 0.00 | 0.00 | 0.00 | 95 | 1015.3 |
| 20260905122512 | 77 | 290 | 3.0 | 5.0 | 0.00 | 0.00 | 0.00 | 95 | 1015.3 |
| 20260905122021 | 77 | 291 | 3.0 | 6.0 | 0.00 | 0.00 | 0.00 | 95 | 1015.3 |
| 20260905121516 | 77 | 295 | 4.0 | 7.0 | 0.00 | 0.00 | 0.00 | 95 | 1015.3 |
| 20260905120513 | 77 | 263 | 2.0 | 6.0 | 0.00 | 0.00 | 0.00 | 95 | 1015.1 |
| 20260905120013 | 77 | 238 | 1.0 | 3.0 | 0.00 | 0.00 | 0.00 | 95 | 1015.0 |
| 20260905114505 | 77 | 238 | 2.0 | 4.0 | 0.00 | 0.00 | 0.00 | 96 | 1014.8 |
| 20260905114004 | 77 | 238 | 1.0 | 2.0 | 0.00 | 0.00 | 0.00 | 96 | 1014.7 |
| 20260905113505 | 77 | 238 | 2.0 | 5.0 | 0.00 | 0.00 | 0.00 | 96 | 1014.7 |
| 20260905113004 | 76 | 238 | 2.0 | 5.0 | 0.00 | 0.00 | 0.00 | 96 | 1014.6 |
| 20260905112504 | 76 | 238 | 1.0 | 3.0 | 0.00 | 0.00 | 0.00 | 96 | 1014.5 |
| 20260905112004 | 77 | 238 | 1.0 | 3.0 | 0.00 | 0.00 | 0.00 | 96 | 1014.6 |
| 20260905111002 | 76 | 238 | 1.0 | 3.0 | 0.00 | 0.00 | 0.00 | 96 | 1014.6 |
| 20260905110501 | 76 | 238 | 1.0 | 3.0 | 0.00 | 0.00 | 0.00 | 96 | 1014.7 |
| 20260905110014 | 76 | 238 | 1.0 | 4.0 | 0.00 | 0.00 | 0.00 | 96 | 1014.6 |
| 20260905104502 | 76 | 238 | 2.0 | 4.0 | 0.00 | 0.00 | 0.00 | 96 | 1014.5 |
| 20260905104002 | 76 | 238 | 2.0 | 4.0 | 0.00 | 0.00 | 0.00 | 96 | 1014.3 |
| 20260905103502 | 76 | 238 | 2.0 | 4.0 | 0.00 | 0.00 | 0.00 | 96 | 1014.4 |
| 20260905103004 | 76 | 235 | 2.0 | 4.0 | 0.00 | 0.00 | 0.00 | 96 | 1014.3 |
| 20260905102502 | 76 | 232 | 1.0 | 3.0 | 0.00 | 0.00 | 0.00 | 96 | 1014.4 |
| 20260905102001 | 76 | 232 | 1.0 | 3.0 | 0.00 | 0.00 | 0.00 | 96 | 1014.3 |
| 20260905101503 | 76 | 232 | 1.0 | 3.0 | 0.00 | 0.00 | 0.00 | 96 | 1014.3 |
| 20260905101003 | 76 | 232 | 1.0 | 3.0 | 0.00 | 0.00 | 0.00 | 96 | 1014.2 |
| 20260905100503 | 76 | 232 | 2.0 | 4.0 | 0.00 | 0.00 | 0.00 | 96 | 1014.1 |
| 20260905100004 | 76 | 232 | 2.0 | 4.0 | 0.00 | 0.00 | 0.00 | 96 | 1014.0 |
| 20260905095503 | 76 | 232 | 2.0 | 5.0 | 0.00 | 0.00 | 0.00 | 96 | 1014.0 |
| 20260905095002 | 76 | 232 | 3.0 | 5.0 | 0.00 | 0.00 | 0.00 | 96 | 1014.0 |
| 20260905094001 | 77 | 198 | 2.0 | 4.0 | 0.00 | 0.00 | 0.00 | 96 | 1013.8 |
| 20260905093501 | 77 | 198 | 2.0 | 4.0 | 0.00 | 0.00 | 0.00 | 96 | 1013.9 |
| 20260905093001 | 77 | 197 | 1.0 | 4.0 | 0.00 | 0.00 | 0.00 | 96 | 1013.9 |
| 20260905092505 | 77 | 197 | 1.0 | 3.0 | 0.00 | 0.00 | 0.00 | 96 | 1014.0 |
| 20260905092006 | 77 | 197 | 1.0 | 3.0 | 0.00 | 0.00 | 0.00 | 96 | 1014.0 |
| 20260905091502 | 77 | 197 | 1.0 | 4.0 | 0.00 | 0.00 | 0.00 | 96 | 1014.0 |
| 20260905091001 | 77 | 197 | 2.0 | 4.0 | 0.00 | 0.00 | 0.00 | 96 | 1013.9 |
| 20260905090501 | 77 | 197 | 1.0 | 3.0 | 0.00 | 0.00 | 0.00 | 96 | 1013.7 |
| 20260905090001 | 77 | 197 | 2.0 | 4.0 | 0.00 | 0.00 | 0.00 | 96 | 1013.7 |
| 20260905085502 | 77 | 197 | 3.0 | 5.0 | 0.00 | 0.00 | 0.00 | 96 | 1013.6 |
| 20260905084457 | 77 | 193 | 2.0 | 6.0 | 0.00 | 0.00 | 0.00 | 96 | 1013.5 |
| 20260905083506 | 77 | 194 | 2.0 | 5.0 | 0.00 | 0.00 | 0.00 | 96 | 1013.4 |
| 20260905082959 | 77 | 147 | 2.0 | 3.0 | 0.00 | 0.00 | 0.00 | 96 | 1013.6 |
| 20260905082451 | 77 | 147 | 1.0 | 3.0 | 0.00 | 0.00 | 0.00 | 96 | 1013.6 |
| 20260905081951 | 77 | 118 | 1.0 | 2.0 | 0.00 | 0.00 | 0.00 | 96 | 1013.7 |
| 20260905081446 | 77 | 118 | 1.0 | 3.0 | 0.00 | 0.00 | 0.00 | 96 | 1013.8 |
| 20260905080442 | 77 | 118 | 0.0 | 0.0 | 0.00 | 0.00 | 0.00 | 96 | 1013.8 |
| 20260905075941 | 77 | 118 | 0.0 | 0.0 | 0.00 | 0.00 | 0.00 | 96 | 1013.7 |
| 20260905075441 | 77 | 118 | 0.0 | 2.0 | 0.00 | 0.00 | 0.00 | 96 | 1013.8 |
| 20260905074939 | 78 | 118 | 1.0 | 3.0 | 0.00 | 0.00 | 0.00 | 96 | 1013.8 |
| 20260905074441 | 78 | 118 | 1.0 | 3.0 | 0.00 | 0.00 | 0.00 | 96 | 1013.8 |
| 20260905073937 | 78 | 118 | 0.0 | 0.0 | 0.00 | 0.00 | 0.00 | 96 | 1013.8 |
| 20260905073442 | 78 | 118 | 0.0 | 0.0 | 0.00 | 0.00 | 0.00 | 96 | 1013.9 |
| 20260905072942 | 78 | 118 | 0.0 | 0.0 | 0.00 | 0.00 | 0.00 | 96 | 1013.9 |
| 20260905072436 | 78 | 118 | 0.0 | 0.0 | 0.00 | 0.00 | 0.00 | 96 | 1013.8 |
| 20260905071934 | 78 | 118 | 0.0 | 0.0 | 0.00 | 0.00 | 0.00 | 96 | 1013.9 |
| 20260905071431 | 78 | 118 | 1.0 | 3.0 | 0.00 | 0.00 | 0.00 | 96 | 1013.9 |
| 20260905070931 | 78 | 118 | 1.0 | 3.0 | 0.00 | 0.00 | 0.00 | 96 | 1013.8 |
| 20260905065925 | 78 | 118 | 0.0 | 3.0 | 0.00 | 0.00 | 0.00 | 96 | 1013.8 |
| 20260905065422 | 78 | 117 | 0.0 | 0.0 | 0.00 | 0.00 | 0.00 | 96 | 1013.8 |
| 20260905064919 | 78 | 117 | 0.0 | 0.0 | 0.00 | 0.00 | 0.00 | 95 | 1013.9 |
| 20260905064418 | 78 | 117 | 0.0 | 0.0 | 0.00 | 0.00 | 0.00 | 96 | 1014.0 |
| 20260905063919 | 78 | 117 | 0.0 | 0.0 | 0.00 | 0.00 | 0.00 | 95 | 1014.0 |
| 20260905062913 | 78 | 117 | 0.0 | 0.0 | 0.00 | 0.00 | 0.00 | 95 | 1014.1 |
| 20260905062410 | 78 | 117 | 0.0 | 0.0 | 0.00 | 0.00 | 0.00 | 95 | 1014.2 |
| 20260905061909 | 78 | 117 | 0.0 | 0.0 | 0.00 | 0.00 | 0.00 | 95 | 1014.2 |
| 20260905060903 | 78 | 117 | 0.0 | 0.0 | 0.00 | 0.00 | 0.00 | 95 | 1014.3 |
| 20260905060404 | 78 | 117 | 0.0 | 0.0 | 0.00 | 0.00 | 0.00 | 95 | 1014.5 |
| 20260905055855 | 78 | 117 | 0.0 | 0.0 | 0.00 | 0.00 | 0.00 | 95 | 1014.6 |
| 20260905055349 | 78 | 117 | 0.0 | 0.0 | 0.00 | 0.00 | 0.00 | 95 | 1014.6 |
| 20260905054844 | 78 | 117 | 0.0 | 0.0 | 0.00 | 0.00 | 0.00 | 95 | 1014.6 |
| 20260905054339 | 78 | 117 | 0.0 | 0.0 | 0.00 | 0.00 | 0.00 | 95 | 1014.5 |
| 20260905053839 | 78 | 117 | 0.0 | 0.0 | 0.00 | 0.00 | 0.00 | 95 | 1014.6 |
| 20260905052335 | 78 | 117 | 0.0 | 0.0 | 0.00 | 0.00 | 0.00 | 95 | 1014.9 |
| 20260905051837 | 78 | 117 | 0.0 | 0.0 | 0.00 | 0.00 | 0.00 | 95 | 1014.9 |
| 20260905051335 | 78 | 117 | 0.0 | 0.0 | 0.00 | 0.00 | 0.00 | 95 | 1014.9 |
| 20260905050335 | 78 | 117 | 0.0 | 0.0 | 0.00 | 0.00 | 0.00 | 95 | 1014.9 |
| 20260905045833 | 78 | 117 | 0.0 | 0.0 | 0.00 | 0.00 | 0.00 | 95 | 1015.0 |
| 20260905045331 | 78 | 117 | 0.0 | 0.0 | 0.00 | 0.00 | 0.00 | 95 | 1015.1 |
| 20260905044836 | 78 | 117 | 0.0 | 0.0 | 0.00 | 0.00 | 0.00 | 95 | 1015.1 |
| 20260905044329 | 78 | 117 | 0.0 | 0.0 | 0.00 | 0.00 | 0.00 | 95 | 1015.0 |
| 20260905043827 | 78 | 117 | 0.0 | 0.0 | 0.00 | 0.00 | 0.00 | 95 | 1015.1 |
| 20260905042824 | 78 | 117 | 0.0 | 0.0 | 0.00 | 0.00 | 0.00 | 95 | 1015.2 |
| 20260905041813 | 78 | 117 | 0.0 | 0.0 | 0.00 | 0.00 | 0.00 | 94 | 1015.2 |
| 20260905041312 | 78 | 117 | 0.0 | 0.0 | 0.00 | 0.00 | 0.00 | 94 | 1015.2 |
| 20260905040307 | 78 | 117 | 0.0 | 0.0 | 0.00 | 0.00 | 0.00 | 94 | 1015.2 |
| 20260905035806 | 79 | 117 | 0.0 | 0.0 | 0.00 | 0.00 | 0.00 | 94 | 1015.2 |
| 20260905035306 | 79 | 117 | 0.0 | 0.0 | 0.00 | 0.00 | 0.00 | 94 | 1015.1 |
| 20260905034809 | 79 | 117 | 0.0 | 0.0 | 0.00 | 0.00 | 0.00 | 94 | 1015.2 |
| 20260905034302 | 79 | 117 | 0.0 | 0.0 | 0.00 | 0.00 | 0.00 | 94 | 1015.2 |
| 20260905033259 | 79 | 117 | 0.0 | 0.0 | 0.00 | 0.00 | 0.00 | 94 | 1015.2 |
| 20260905032259 | 79 | 117 | 0.0 | 0.0 | 0.00 | 0.00 | 0.00 | 94 | 1015.4 |
| 20260905031759 | 79 | 117 | 0.0 | 0.0 | 0.00 | 0.00 | 0.00 | 94 | 1015.4 |
| 20260905031258 | 79 | 117 | 0.0 | 0.0 | 0.00 | 0.00 | 0.00 | 94 | 1015.5 |
| 20260905030757 | 80 | 117 | 0.0 | 0.0 | 0.00 | 0.00 | 0.00 | 94 | 1015.5 |
| 20260905025753 | 80 | 117 | 0.0 | 0.0 | 0.00 | 0.00 | 0.00 | 94 | 1015.7 |
| 20260905025245 | 80 | 117 | 0.0 | 0.0 | 0.00 | 0.00 | 0.00 | 94 | 1015.7 |
| 20260905024745 | 80 | 117 | 0.0 | 0.0 | 0.00 | 0.00 | 0.00 | 94 | 1015.8 |
| 20260905024243 | 80 | 117 | 0.0 | 0.0 | 0.00 | 0.00 | 0.00 | 94 | 1015.9 |
| 20260905022743 | 80 | 117 | 0.0 | 0.0 | 0.00 | 0.00 | 0.00 | 94 | 1016.0 |
| 20260905022239 | 80 | 117 | 0.0 | 0.0 | 0.00 | 0.00 | 0.00 | 94 | 1016.0 |
| 20260905021734 | 80 | 117 | 0.0 | 0.0 | 0.00 | 0.00 | 0.00 | 94 | 1016.0 |
| 20260905021235 | 80 | 117 | 0.0 | 0.0 | 0.00 | 0.00 | 0.00 | 94 | 1016.0 |
| 20260905020233 | 79 | 117 | 0.0 | 0.0 | 0.00 | 0.00 | 0.00 | 93 | 1016.0 |
| 20260905015731 | 80 | 117 | 0.0 | 0.0 | 0.00 | 0.00 | 0.00 | 94 | 1016.1 |
| 20260905015230 | 80 | 117 | 0.0 | 0.0 | 0.00 | 0.00 | 0.00 | 94 | 1016.0 |
| 20260905014733 | 80 | 117 | 0.0 | 0.0 | 0.00 | 0.00 | 0.00 | 94 | 1015.9 |
| 20260905014231 | 80 | 117 | 0.0 | 0.0 | 0.00 | 0.00 | 0.00 | 93 | 1015.9 |
| 20260905013732 | 79 | 117 | 0.0 | 0.0 | 0.00 | 0.00 | 0.00 | 93 | 1015.8 |
| 20260905013238 | 79 | 117 | 0.0 | 0.0 | 0.00 | 0.00 | 0.00 | 93 | 1015.8 |
| 20260905012747 | 79 | 117 | 0.0 | 0.0 | 0.00 | 0.00 | 0.00 | 93 | 1015.8 |
| 20260905012236 | 79 | 117 | 0.0 | 0.0 | 0.00 | 0.00 | 0.00 | 93 | 1015.6 |
| 20260905011733 | 79 | 117 | 0.0 | 0.0 | 0.00 | 0.00 | 0.00 | 93 | 1015.6 |
| 20260905011232 | 80 | 117 | 0.0 | 0.0 | 0.00 | 0.00 | 0.00 | 92 | 1015.5 |
| 20260905010721 | 80 | 117 | 0.0 | 0.0 | 0.00 | 0.00 | 0.00 | 92 | 1015.4 |
| 20260905010222 | 80 | 117 | 0.0 | 0.0 | 0.00 | 0.00 | 0.00 | 92 | 1015.3 |
| 20260905005717 | 80 | 117 | 0.0 | 0.0 | 0.00 | 0.00 | 0.00 | 92 | 1015.2 |
| 20260905005218 | 80 | 117 | 0.0 | 0.0 | 0.00 | 0.00 | 0.00 | 92 | 1015.2 |
| 20260905004715 | 80 | 117 | 0.0 | 0.0 | 0.00 | 0.00 | 0.00 | 92 | 1015.4 |
| 20260905003714 | 80 | 117 | 0.0 | 0.0 | 0.00 | 0.00 | 0.00 | 92 | 1015.2 |
| 20260905002211 | 80 | 117 | 0.0 | 1.0 | 0.00 | 0.00 | 0.00 | 92 | 1015.4 |
| 20260905000704 | 81 | 117 | 0.0 | 1.0 | 0.00 | 0.00 | 0.00 | 91 | 1015.1 |
| 20260905000215 | 81 | 117 | 1.0 | 2.0 | 0.00 | 0.00 | 0.00 | 91 | 1015.3 |
| 20260904235713 | 81 | 117 | 1.0 | 2.0 | 0.00 | 0.00 | 0.00 | 91 | 1015.3 |
| 20260904235224 | 81 | 117 | 1.0 | 3.0 | 0.00 | 0.00 | 0.00 | 91 | 1015.1 |
| 20260904234204 | 81 | 117 | 1.0 | 3.0 | 0.00 | 0.00 | 0.00 | 90 | 1015.1 |
| 20260904233659 | 81 | 117 | 1.0 | 3.0 | 0.00 | 0.00 | 0.00 | 90 | 1015.3 |
| 20260904233200 | 81 | 117 | 1.0 | 3.0 | 0.00 | 0.00 | 0.00 | 90 | 1015.2 |
| 20260904232710 | 81 | 117 | 1.0 | 3.0 | 0.00 | 0.00 | 0.00 | 90 | 1015.3 |
| 20260904232209 | 81 | 117 | 1.0 | 2.0 | 0.00 | 0.00 | 0.00 | 90 | 1015.1 |
| 20260904231701 | 81 | 117 | 1.0 | 4.0 | 0.00 | 0.00 | 0.00 | 89 | 1015.2 |
| 20260904231159 | 81 | 117 | 1.0 | 4.0 | 0.00 | 0.00 | 0.00 | 89 | 1015.1 |
| 20260904230710 | 82 | 117 | 1.0 | 3.0 | 0.00 | 0.00 | 0.00 | 89 | 1015.1 |
| 20260904230158 | 82 | 117 | 1.0 | 3.0 | 0.00 | 0.00 | 0.00 | 89 | 1015.0 |
| 20260904225657 | 82 | 117 | 1.0 | 3.0 | 0.00 | 0.00 | 0.00 | 89 | 1015.1 |
| 20260904225158 | 81 | 115 | 1.0 | 3.0 | 0.00 | 0.00 | 0.00 | 89 | 1015.2 |
| 20260904224701 | 81 | 115 | 1.0 | 3.0 | 0.00 | 0.00 | 0.00 | 88 | 1015.1 |
| 20260904224206 | 81 | 108 | 1.0 | 3.0 | 0.00 | 0.00 | 0.00 | 88 | 1015.1 |
| 20260904223154 | 82 | 158 | 1.0 | 4.0 | 0.00 | 0.00 | 0.00 | 88 | 1015.0 |
| 20260904222655 | 82 | 158 | 1.0 | 4.0 | 0.00 | 0.00 | 0.00 | 87 | 1014.9 |
| 20260904221654 | 82 | 162 | 1.0 | 4.0 | 0.00 | 0.00 | 0.00 | 87 | 1015.1 |
| 20260904221153 | 82 | 162 | 1.0 | 4.0 | 0.00 | 0.00 | 0.00 | 87 | 1015.1 |
| 20260904220650 | 82 | 162 | 1.0 | 4.0 | 0.00 | 0.00 | 0.00 | 87 | 1015.1 |
| 20260904220148 | 82 | 162 | 1.0 | 5.0 | 0.00 | 0.00 | 0.00 | 87 | 1015.0 |
| 20260904215645 | 82 | 162 | 2.0 | 5.0 | 0.00 | 0.00 | 0.00 | 87 | 1015.1 |
| 20260904215145 | 81 | 162 | 2.0 | 5.0 | 0.00 | 0.00 | 0.00 | 86 | 1015.1 |
| 20260904214144 | 81 | 135 | 2.0 | 4.0 | 0.00 | 0.00 | 0.00 | 86 | 1015.3 |
| 20260904213651 | 81 | 135 | 2.0 | 4.0 | 0.00 | 0.00 | 0.00 | 86 | 1015.5 |
| 20260904213146 | 81 | 130 | 1.0 | 3.0 | 0.00 | 0.00 | 0.00 | 86 | 1015.5 |
| 20260904212144 | 81 | 130 | 1.0 | 4.0 | 0.00 | 0.00 | 0.00 | 85 | 1015.2 |
| 20260904211713 | 81 | 129 | 1.0 | 4.0 | 0.00 | 0.00 | 0.00 | 86 | 1015.2 |
| 20260904211208 | 81 | 124 | 1.0 | 4.0 | 0.00 | 0.00 | 0.00 | 85 | 1015.1 |
| 20260904210640 | 81 | 124 | 2.0 | 5.0 | 0.00 | 0.00 | 0.00 | 85 | 1015.1 |
| 20260904210141 | 81 | 141 | 2.0 | 5.0 | 0.00 | 0.00 | 0.00 | 86 | 1015.0 |
| 20260904205642 | 82 | 146 | 2.0 | 6.0 | 0.00 | 0.00 | 0.00 | 86 | 1014.9 |
| 20260904205141 | 82 | 146 | 2.0 | 6.0 | 0.00 | 0.00 | 0.00 | 86 | 1014.9 |
| 20260904203642 | 82 | 178 | 2.0 | 7.0 | 0.00 | 0.00 | 0.00 | 85 | 1015.1 |
| 20260904203135 | 82 | 103 | 1.0 | 6.0 | 0.00 | 0.00 | 0.00 | 85 | 1015.1 |
| 20260904202635 | 82 | 141 | 1.0 | 6.0 | 0.00 | 0.00 | 0.00 | 86 | 1015.1 |
| 20260904202136 | 82 | 112 | 1.0 | 6.0 | 0.00 | 0.00 | 0.00 | 86 | 1015.2 |
| 20260904201633 | 82 | 221 | 2.0 | 7.0 | 0.00 | 0.00 | 0.00 | 87 | 1015.3 |
| 20260904201134 | 81 | 92 | 3.0 | 10.0 | 0.00 | 0.00 | 0.00 | 87 | 1015.5 |
| 20260904200632 | 81 | 123 | 4.0 | 10.0 | 0.00 | 0.00 | 0.00 | 86 | 1015.4 |
| 20260904200129 | 82 | 125 | 3.0 | 9.0 | 0.00 | 0.00 | 0.00 | 85 | 1015.5 |
| 20260904195630 | 82 | 139 | 3.0 | 8.0 | 0.00 | 0.00 | 0.00 | 85 | 1015.5 |
| 20260904195132 | 83 | 186 | 4.0 | 11.0 | 0.00 | 0.00 | 0.00 | 84 | 1015.6 |
| 20260904194629 | 84 | 130 | 5.0 | 16.0 | 0.00 | 0.00 | 0.00 | 82 | 1015.6 |
| 20260904194130 | 85 | 161 | 4.0 | 16.0 | 0.00 | 0.00 | 0.00 | 81 | 1015.6 |
| 20260904193629 | 86 | 100 | 3.0 | 10.0 | 0.00 | 0.00 | 0.00 | 80 | 1015.4 |
| 20260904193129 | 87 | 120 | 3.0 | 10.0 | 0.00 | 0.00 | 0.00 | 77 | 1015.3 |
| 20260904192628 | 88 | 126 | 2.0 | 4.0 | 0.00 | 0.00 | 0.00 | 75 | 1015.1 |
| 20260904192129 | 88 | 129 | 2.0 | 7.0 | 0.00 | 0.00 | 0.00 | 71 | 1015.0 |
| 20260904191630 | 89 | 127 | 1.0 | 7.0 | 0.00 | 0.00 | 0.00 | 72 | 1015.1 |
| 20260904191130 | 89 | 112 | 1.0 | 4.0 | 0.00 | 0.00 | 0.00 | 72 | 1015.2 |
| 20260904190628 | 89 | 112 | 1.0 | 4.0 | 0.00 | 0.00 | 0.00 | 72 | 1015.2 |
| 20260904190128 | 89 | 112 | 1.0 | 4.0 | 0.00 | 0.00 | 0.00 | 71 | 1015.2 |
| 20260904185629 | 89 | 111 | 2.0 | 4.0 | 0.00 | 0.00 | 0.00 | 71 | 1015.2 |
| 20260904185129 | 89 | 106 | 1.0 | 4.0 | 0.00 | 0.00 | 0.00 | 72 | 1015.3 |
| 20260904184129 | 89 | 65 | 3.0 | 5.0 | 0.00 | 0.00 | 0.00 | 72 | 1015.3 |
| 20260904183630 | 89 | 64 | 3.0 | 5.0 | 0.00 | 0.00 | 0.00 | 69 | 1015.4 |
| 20260904183132 | 89 | 65 | 4.0 | 8.0 | 0.00 | 0.00 | 0.00 | 71 | 1015.4 |
| 20260904182633 | 89 | 63 | 4.0 | 8.0 | 0.00 | 0.00 | 0.00 | 71 | 1015.4 |
| 20260904182133 | 89 | 69 | 3.0 | 9.0 | 0.00 | 0.00 | 0.00 | 71 | 1015.5 |
| 20260904181135 | 90 | 141 | 1.0 | 5.0 | 0.00 | 0.00 | 0.00 | 70 | 1015.6 |
| 20260904180633 | 90 | 141 | 1.0 | 4.0 | 0.00 | 0.00 | 0.00 | 69 | 1015.5 |
| 20260904180135 | 89 | 141 | 2.0 | 6.0 | 0.00 | 0.00 | 0.00 | 69 | 1015.7 |
| 20260904175626 | 89 | 141 | 2.0 | 5.0 | 0.00 | 0.00 | 0.00 | 69 | 1015.7 |
| 20260904175127 | 89 | 152 | 2.0 | 5.0 | 0.00 | 0.00 | 0.00 | 68 | 1015.7 |
| 20260904174630 | 90 | 167 | 2.0 | 7.0 | 0.00 | 0.00 | 0.00 | 69 | 1015.8 |
| 20260904173627 | 90 | 152 | 2.0 | 5.0 | 0.00 | 0.00 | 0.00 | 65 | 1015.9 |
| 20260904173124 | 91 | 174 | 2.0 | 7.0 | 0.00 | 0.00 | 0.00 | 64 | 1016.0 |
| 20260904172623 | 91 | 161 | 2.0 | 7.0 | 0.00 | 0.00 | 0.00 | 65 | 1016.1 |
| 20260904171625 | 90 | 89 | 2.0 | 6.0 | 0.00 | 0.00 | 0.00 | 67 | 1016.2 |
| 20260904171126 | 91 | 94 | 2.0 | 5.0 | 0.00 | 0.00 | 0.00 | 69 | 1016.2 |
| 20260904170624 | 90 | 139 | 2.0 | 5.0 | 0.00 | 0.00 | 0.00 | 67 | 1016.2 |
| 20260904165112 | 90 | 83 | 3.0 | 6.0 | 0.00 | 0.00 | 0.00 | 68 | 1016.4 |
| 20260904164613 | 89 | 37 | 2.0 | 6.0 | 0.00 | 0.00 | 0.00 | 69 | 1016.6 |
| 20260904163606 | 89 | 184 | 3.0 | 7.0 | 0.00 | 0.00 | 0.00 | 73 | 1016.8 |
| 20260904163112 | 89 | 188 | 4.0 | 12.0 | 0.00 | 0.00 | 0.00 | 71 | 1016.8 |
| 20260904162610 | 88 | 187 | 4.0 | 12.0 | 0.00 | 0.00 | 0.00 | 71 | 1016.8 |
| 20260904161612 | 88 | 189 | 3.0 | 6.0 | 0.00 | 0.00 | 0.00 | 73 | 1017.1 |
| 20260904161112 | 88 | 117 | 2.0 | 4.0 | 0.00 | 0.00 | 0.00 | 73 | 1017.2 |
| 20260904160608 | 87 | 116 | 2.0 | 7.0 | 0.00 | 0.00 | 0.00 | 76 | 1017.2 |
| 20260904160110 | 88 | 114 | 2.0 | 10.0 | 0.00 | 0.00 | 0.00 | 73 | 1017.1 |
| 20260904155107 | 88 | 73 | 3.0 | 9.0 | 0.00 | 0.00 | 0.00 | 75 | 1017.2 |
| 20260904154603 | 87 | 159 | 2.0 | 6.0 | 0.00 | 0.00 | 0.00 | 73 | 1017.2 |
| 20260904153604 | 88 | 107 | 2.0 | 4.0 | 0.00 | 0.00 | 0.00 | 73 | 1017.3 |
| 20260904153102 | 88 | 105 | 2.0 | 7.0 | 0.00 | 0.00 | 0.00 | 77 | 1017.2 |
| 20260904152104 | 87 | 147 | 2.0 | 5.0 | 0.00 | 0.00 | 0.00 | 73 | 1017.2 |
| 20260904151602 | 87 | 56 | 2.0 | 5.0 | 0.00 | 0.00 | 0.00 | 76 | 1017.2 |
| 20260904151102 | 86 | 41 | 3.0 | 6.0 | 0.00 | 0.00 | 0.00 | 77 | 1017.1 |
| 20260904150113 | 86 | 220 | 2.0 | 4.0 | 0.00 | 0.00 | 0.00 | 77 | 1017.1 |
| 20260904145608 | 85 | 208 | 2.0 | 5.0 | 0.00 | 0.00 | 0.00 | 78 | 1017.1 |
| 20260904145102 | 85 | 208 | 2.0 | 5.0 | 0.00 | 0.00 | 0.00 | 79 | 1017.2 |
| 20260904144602 | 85 | 89 | 2.0 | 6.0 | 0.00 | 0.00 | 0.00 | 79 | 1017.2 |
| 20260904144101 | 85 | 87 | 2.0 | 6.0 | 0.00 | 0.00 | 0.00 | 81 | 1017.1 |
| 20260904143603 | 85 | 87 | 2.0 | 7.0 | 0.00 | 0.00 | 0.00 | 80 | 1017.0 |
| 20260904142100 | 83 | 181 | 3.0 | 9.0 | 0.00 | 0.00 | 0.00 | 85 | 1017.2 |
| 20260904141601 | 82 | 184 | 2.0 | 9.0 | 0.00 | 0.00 | 0.00 | 90 | 1017.0 |
| 20260904141100 | 80 | 175 | 2.0 | 6.0 | 0.00 | 0.00 | 0.00 | 94 | 1017.0 |
| 20260904140600 | 80 | 158 | 2.0 | 4.0 | 0.00 | 0.00 | 0.00 | 95 | 1017.0 |
| 20260904135601 | 79 | 341 | 1.0 | 4.0 | 0.00 | 0.00 | 0.00 | 96 | 1017.1 |